Weather History for Ypsilanti, MI

Change the Weather History Date:

Wednesday, February 5, 2014

  Actual Average Record
Temperature  
Mean Temperature 19 °F -  
Max Temperature 28 °F 30 °F 52 °F (1991)
Min Temperature 10 °F 16 °F -8 °F (2009)
Degree Days  
Heating Degree Days 46    
Moisture  
Dew Point 15 °F    
Average Humidity 73    
Maximum Humidity 82    
Minimum Humidity 57    
Precipitation  
Precipitation 0.00 in - - ()
Sea Level Pressure  
Sea Level Pressure 30.05 in    
Wind  
Wind Speed 16 mph (North)    
Max Wind Speed 23 mph    
Max Gust Speed 30 mph    
Visibility 4 miles    
Events Rain , Snow    
Averages and records for this station are not official NWS values.
T = Trace of Precipitation, MM = Missing Value Source: NWS Daily Summary

Daily Weather History Graph

Daily Weather History Graph

Search for Another Location

Airport:

Trip Planner

Search our weather history database for the weather conditions in past years. The results will help you decide how hot, cold, wet, or windy it might be!

Date:

Astronomy

Feb. 05, 2014 Rise Set
Actual Time 7:43 AM EST 5:53 PM EST
Civil Twilight 7:13 AM EST 6:23 PM EST
Nautical Twilight 6:40 AM EST 6:56 PM EST
Astronomical Twilight 6:07 AM EST 7:29 PM EST
Moon 10:49 AM EST (2/5) No Moon Set
Length of Visible Light 11h 09m
Length of Day
10h 10m
Waxing Crescent, 39% of the Moon is Illuminated
Feb 5
Waxing Crescent
Feb 6
First Quarter
Feb 14
Full
Feb 22
Last Quarter
Mar 1
New

Hourly Weather History & Observations

Time (EST) Temp. Windchill Dew Point Humidity Pressure Visibility Wind Dir Wind Speed Gust Speed Precip Events Conditions
12:53 AM 21.9 °F 9.2 °F 16.0 °F 78% 30.12 in 2.0 mi NE 13.8 mph - 0.00 in Snow Light Snow
12:56 AM 21.2 °F 8.3 °F 15.8 °F 80% 30.09 in 1.8 mi NE 13.8 mph - 0.00 in Snow Light Snow
1:53 AM 21.9 °F 9.2 °F 16.0 °F 78% 30.08 in 1.0 mi NE 13.8 mph - 0.00 in Snow Light Snow
2:40 AM 21.2 °F 8.9 °F 15.8 °F 80% 30.03 in 2.0 mi NNE 12.7 mph - 0.00 in Snow Light Snow
2:53 AM 21.9 °F 8.7 °F 16.0 °F 78% 30.06 in 2.0 mi NE 15.0 mph - 0.00 in Snow Light Snow
3:03 AM 21.2 °F 8.3 °F 15.8 °F 80% 30.04 in 1.8 mi NE 13.8 mph - 0.00 in Snow Light Snow
3:15 AM 21.2 °F 7.3 °F 15.8 °F 80% 30.02 in 1.8 mi NNE 16.1 mph - 0.00 in Snow Light Snow
3:37 AM 21.2 °F 6.8 °F 15.8 °F 80% 30.00 in 1.5 mi NNE 17.3 mph - 0.00 in Snow Light Snow
3:53 AM 21.9 °F 7.3 °F 16.0 °F 78% 30.00 in 2.5 mi NNE 18.4 mph - 0.00 in Snow Light Snow
4:10 AM 21.2 °F 6.0 °F 15.8 °F 80% 29.96 in 3.0 mi NE 19.6 mph 26.5 mph 0.00 in   Overcast
4:29 AM 21.2 °F 5.6 °F 15.8 °F 80% 29.94 in 3.0 mi NE 20.7 mph - 0.00 in Rain Light Freezing Rain
4:53 AM 21.9 °F 5.8 °F 16.0 °F 78% 29.95 in 2.5 mi NNE 23.0 mph 28.8 mph 0.00 in Rain Light Freezing Rain
5:01 AM 21.2 °F 5.6 °F 15.8 °F 80% 29.90 in 3.0 mi NNE 20.7 mph - 0.00 in Rain Light Freezing Rain
5:05 AM 21.2 °F 6.0 °F 15.8 °F 80% 29.89 in 2.5 mi NNE 19.6 mph - 0.00 in Snow Light Snow
5:14 AM 21.2 °F 4.9 °F 15.8 °F 80% 29.89 in 2.0 mi NNE 23.0 mph 29.9 mph 0.00 in Snow Light Snow
5:21 AM 21.2 °F 5.2 °F 15.8 °F 80% 29.88 in 1.8 mi NNE 21.9 mph 29.9 mph 0.00 in Snow Light Snow
5:53 AM 21.9 °F 7.3 °F 17.1 °F 82% 29.89 in 1.0 mi NNE 18.4 mph 27.6 mph 0.00 in Snow Light Snow
6:11 AM 23.0 °F 8.7 °F 17.6 °F 80% 29.89 in 1.2 mi NNE 18.4 mph 24.2 mph 0.00 in Snow Light Snow
6:53 AM 23.0 °F 9.2 °F 17.1 °F 78% 29.89 in 0.8 mi North 17.3 mph - 0.00 in Snow Light Snow
7:03 AM 23.0 °F 9.2 °F 17.6 °F 80% 29.87 in 0.8 mi North 17.3 mph 25.3 mph 0.00 in Snow Light Snow
7:34 AM 23.0 °F 9.2 °F 17.6 °F 80% 29.87 in 0.5 mi NNE 17.3 mph - 0.00 in   Haze
7:53 AM 23.0 °F 9.6 °F 17.1 °F 78% 29.91 in 0.5 mi North 16.1 mph - 0.00 in   Haze
8:44 AM 24.8 °F 10.7 °F 17.6 °F 74% 29.86 in 0.2 mi North 19.6 mph 26.5 mph N/A   Haze
8:53 AM 24.1 °F 10.1 °F 18.0 °F 77% 29.89 in 0.2 mi NNE 18.4 mph 26.5 mph N/A   Haze
9:36 AM 24.8 °F 13.4 °F 19.4 °F 80% 29.91 in 0.5 mi North 12.7 mph - N/A   Haze
9:44 AM 24.8 °F 12.4 °F 19.4 °F 80% 29.91 in 0.5 mi North 15.0 mph - N/A   Haze
9:53 AM 25.0 °F 13.1 °F 19.0 °F 78% 29.94 in 0.5 mi North 13.8 mph - N/A   Haze
10:37 AM 24.8 °F 11.9 °F 19.4 °F 80% 29.94 in 0.5 mi North 16.1 mph - N/A   Haze
10:53 AM 25.0 °F 11.7 °F 19.0 °F 78% 29.97 in 0.5 mi North 17.3 mph - N/A   Haze
11:29 AM 26.6 °F 13.8 °F 19.4 °F 74% 29.96 in 0.5 mi North 17.3 mph 25.3 mph 0.00 in Snow Snow
11:48 AM 26.6 °F 13.1 °F 19.4 °F 74% 29.96 in 0.8 mi North 19.6 mph 26.5 mph 0.00 in Snow Light Snow
11:53 AM 26.1 °F 12.3 °F 19.0 °F 75% 29.99 in 1.0 mi North 19.6 mph 27.6 mph 0.00 in Snow Light Snow
12:50 PM 26.6 °F 14.7 °F 19.4 °F 74% 30.00 in 2.5 mi North 15.0 mph 24.2 mph 0.00 in Snow Light Snow
1:04 PM 28.4 °F 17.0 °F 17.6 °F 64% 30.01 in 3.0 mi North 15.0 mph - 0.00 in Snow Light Snow
1:38 PM 28.4 °F 18.5 °F 19.4 °F 69% 30.01 in 1.8 mi NNW 11.5 mph - 0.00 in Snow Light Snow
1:50 PM 28.4 °F 16.6 °F 17.6 °F 64% 30.02 in 3.0 mi North 16.1 mph 25.3 mph 0.00 in Snow Light Snow
1:53 PM 28.0 °F 14.6 °F 18.0 °F 66% 30.04 in 4.0 mi North 20.7 mph 27.6 mph 0.00 in Snow Light Snow
2:12 PM 28.4 °F 15.8 °F 17.6 °F 64% 30.04 in 4.0 mi NNW 18.4 mph - 0.00 in Snow Light Snow
2:27 PM 26.6 °F 12.7 °F 17.6 °F 69% 30.05 in 2.0 mi NNW 20.7 mph - 0.00 in Snow Light Snow
2:44 PM 26.6 °F 13.8 °F 17.6 °F 69% 30.07 in 4.0 mi North 17.3 mph - 0.00 in Snow Light Snow
2:53 PM 27.0 °F 13.9 °F 17.1 °F 66% 30.10 in 4.0 mi NNW 18.4 mph - 0.00 in Snow Light Snow
3:20 PM 26.6 °F 13.1 °F 15.8 °F 64% 30.09 in 6.0 mi NNW 19.6 mph - 0.00 in Snow Light Snow
3:32 PM 26.6 °F 13.1 °F 15.8 °F 64% 30.09 in 5.0 mi North 19.6 mph - 0.00 in Snow Light Snow
3:53 PM 25.0 °F 10.9 °F 12.9 °F 60% 30.13 in 10.0 mi North 19.6 mph 24.2 mph 0.00 in Rain Light Freezing Rain
4:14 PM 24.8 °F 11.1 °F 15.8 °F 69% 30.12 in 7.0 mi NNW 18.4 mph - 0.00 in Snow Light Snow
4:31 PM 24.8 °F 11.1 °F 12.2 °F 59% 30.13 in 10.0 mi NNW 18.4 mph - 0.00 in Rain Light Freezing Rain
4:53 PM 23.0 °F 10.1 °F 12.0 °F 63% 30.18 in 10.0 mi NNW 15.0 mph - 0.00 in   Mostly Cloudy
5:11 PM 21.2 °F 6.8 °F 10.4 °F 63% 30.17 in 10.0 mi NNW 17.3 mph - N/A   Scattered Clouds
5:53 PM 19.9 °F 9.3 °F 8.1 °F 60% 30.25 in 10.0 mi NNW 9.2 mph - N/A   Clear
6:38 PM 19.4 °F 6.6 °F 6.8 °F 58% 30.25 in 10.0 mi NNW 12.7 mph - N/A   Mostly Cloudy
6:53 PM 19.0 °F 7.5 °F 6.1 °F 57% 30.30 in 10.0 mi NNW 10.4 mph - N/A   Overcast
7:13 PM 17.6 °F 9.3 °F 5.0 °F 58% 30.27 in 10.0 mi NNW 5.8 mph - N/A   Scattered Clouds
7:53 PM 16.0 °F 10.4 °F 5.0 °F 62% 30.32 in 10.0 mi NW 3.5 mph - N/A   Clear
8:53 PM 12.9 °F 6.9 °F 5.0 °F 71% 30.34 in 10.0 mi NW 3.5 mph - N/A   Overcast
9:53 PM 12.0 °F - 3.9 °F 70% 30.36 in 10.0 mi Calm Calm - N/A   Overcast
10:53 PM 10.9 °F - 5.0 °F 77% 30.36 in 10.0 mi Calm Calm - N/A   Overcast
11:53 PM 10.0 °F - 3.0 °F 73% 30.37 in 10.0 mi Calm Calm - N/A   Partly Cloudy